Weather History for Jacksonville, FL

Change the Weather History Date:

Monday, March 4, 2013

  Actual Average Record
Temperature  
Mean Temperature 46 °F 60 °F  
Max Temperature 63 °F 71 °F 86 °F (1953)
Min Temperature 29 °F 48 °F 24 °F (1980)
Degree Days  
Heating Degree Days 19 7  
Month to date heating degree days 79 28  
Since 1 July heating degree days 972 1161  
Cooling Degree Days 0 1  
Month to date cooling degree days 0 4  
Year to date cooling degree days 76 33  
Moisture  
Dew Point 28 °F    
Average Humidity 55    
Maximum Humidity 85    
Minimum Humidity 25    
Precipitation  
Precipitation 0.00 in 0.14 in 1.31 in (2001)
Month to date precipitation 0.00 0.56  
Year to date precipitation 5.72 7.05  
Snow  
Snow 0.00 in 0.00 in T in (1975)
Month to date snowfall 0.0 0.0  
Since 1 July snowfall 0.0 T  
Snow Depth 0.00 in    
Sea Level Pressure  
Sea Level Pressure 30.17 in    
Wind  
Wind Speed 5 mph (West)    
Max Wind Speed 15 mph    
Max Gust Speed 22 mph    
Visibility 10 miles    
Events      
T = Trace of Precipitation, MM = Missing Value Source: NWS Daily Summary

Daily Weather History Graph

Daily Weather History Graph

Search for Another Location

Airport:

Trip Planner

Search our weather history database for the weather conditions in past years. The results will help you decide how hot, cold, wet, or windy it might be!

Date:

Astronomy

Mar. 04, 2013 Rise Set
Actual Time 6:49 AM EST 6:27 PM EST
Civil Twilight 6:25 AM EST 6:51 PM EST
Nautical Twilight 5:57 AM EST 7:19 PM EST
Astronomical Twilight 5:29 AM EST 7:47 PM EST
Moon 12:40 AM EST (3/4) 11:25 AM EST (3/4)
Length of Visible Light 12h 26m
Length of Day
11h 38m
Waning Gibbous, 52% of the Moon is Illuminated
Mar 4
Waning Gibbous
Mar 4
Last Quarter
Mar 11
New
Mar 19
First Quarter
Mar 27
Full

Hourly Weather History & Observations

Time (EST) Temp. Windchill Dew Point Humidity Pressure Visibility Wind Dir Wind Speed Gust Speed Precip Events Conditions
12:56 AM 30.9 °F 26.2 °F 26.1 °F 82% 30.14 in 10.0 mi WSW 4.6 mph - N/A   Clear
1:56 AM 28.9 °F 22.8 °F 25.0 °F 85% 30.15 in 10.0 mi West 5.8 mph - N/A   Clear
2:56 AM 30.0 °F 23.2 °F 26.1 °F 85% 30.14 in 10.0 mi West 6.9 mph - N/A   Clear
3:56 AM 30.0 °F 23.2 °F 26.1 °F 85% 30.15 in 10.0 mi West 6.9 mph - N/A   Clear
4:56 AM 30.0 °F 25.2 °F 26.1 °F 85% 30.17 in 10.0 mi West 4.6 mph - N/A   Clear
5:56 AM 30.0 °F 24.1 °F 26.1 °F 85% 30.19 in 10.0 mi WNW 5.8 mph - N/A   Clear
6:56 AM 30.9 °F 27.5 °F 26.1 °F 82% 30.20 in 10.0 mi West 3.5 mph - N/A   Clear
7:56 AM 36.0 °F 32.1 °F 28.9 °F 76% 30.22 in 10.0 mi NW 4.6 mph - N/A   Clear
8:56 AM 42.1 °F 37.1 °F 26.1 °F 53% 30.22 in 10.0 mi North 8.1 mph - N/A   Clear
9:56 AM 46.9 °F - 21.9 °F 37% 30.24 in 10.0 mi NNW 10.4 mph - N/A   Clear
10:56 AM 51.1 °F - 19.9 °F 29% 30.24 in 10.0 mi NNW 8.1 mph - N/A   Clear
11:56 AM 53.1 °F - 19.9 °F 27% 30.22 in 10.0 mi Variable 5.8 mph - N/A   Clear
12:56 PM 55.4 °F - 21.2 °F 26% 30.18 in 10.0 mi Calm Calm - N/A   Partly Cloudy
1:56 PM 59.0 °F - 24.1 °F 26% 30.15 in 10.0 mi NNW 5.8 mph - N/A   Partly Cloudy
2:56 PM 61.0 °F - 25.0 °F 25% 30.14 in 10.0 mi WSW 4.6 mph - N/A   Partly Cloudy
3:56 PM 62.1 °F - 27.0 °F 26% 30.13 in 10.0 mi Variable 6.9 mph - N/A   Partly Cloudy
4:56 PM 62.1 °F - 28.0 °F 28% 30.13 in 10.0 mi West 6.9 mph - N/A   Partly Cloudy
5:56 PM 60.1 °F - 30.9 °F 33% 30.14 in 10.0 mi WNW 3.5 mph - N/A   Partly Cloudy
6:56 PM 52.0 °F - 36.0 °F 54% 30.15 in 10.0 mi Calm Calm - N/A   Scattered Clouds
7:56 PM 51.1 °F - 37.0 °F 59% 30.16 in 10.0 mi Calm Calm - N/A   Scattered Clouds
8:56 PM 50.0 °F - 37.9 °F 63% 30.16 in 10.0 mi Calm Calm - N/A   Scattered Clouds
9:56 PM 48.9 °F - 39.9 °F 71% 30.16 in 10.0 mi SSE 5.8 mph - N/A   Mostly Cloudy
10:56 PM 48.9 °F - 39.0 °F 69% 30.16 in 10.0 mi South 4.6 mph - N/A   Mostly Cloudy
11:56 PM 46.9 °F - 39.9 °F 77% 30.15 in 10.0 mi South 6.9 mph - N/A   Mostly Cloudy